Weather History for KPVC - June, 2013

Change the Weather History Date:

Friday, June 28, 2013

  Actual Average Record
Temperature  
Mean Temperature 68 °F -  
Max Temperature 71 °F 74 °F 84 °F (2001)
Min Temperature 66 °F 59 °F 46 °F (2014)
Cooling Degree Days 4    
Growing Degree Days 18 (Base 50)    
Moisture  
Dew Point 67 °F    
Average Humidity 95    
Maximum Humidity 100    
Minimum Humidity 88    
Precipitation  
Precipitation 0.57 in - - ()
Sea Level Pressure  
Sea Level Pressure 29.62 in    
Wind  
Wind Speed 10 mph (South)    
Max Wind Speed 21 mph    
Max Gust Speed 25 mph    
Visibility 2 miles    
Events Thunderstorm    
Averages and records for this station are not official NWS values.
T = Trace of Precipitation, MM = Missing Value Source: NWS Daily Summary

Daily Weather History Graph

Daily Weather History Graph

Search for Another Location

Airport or City:

Trip Planner

Search our weather history database for the weather conditions in past years. The results will help you decide how hot, cold, wet, or windy it might be!

Date:

Astronomy

Jun. 28, 2013 Rise Set
Actual Time 5:07 AM EDT 8:20 PM EDT
Civil Twilight 4:33 AM EDT 8:55 PM EDT
Nautical Twilight 3:48 AM EDT 9:39 PM EDT
Astronomical Twilight 2:55 AM EDT 10:32 PM EDT
Moon 11:40 PM EDT (6/28) 11:18 AM EDT (6/28)
Length of Visible Light 16h 22m
Length of Day
15h 13m
Waning Gibbous, 66% of the Moon is Illuminated
Jun 28
Waning Gibbous
Jun 30
Last Quarter
Jul 8
New
Jul 15
First Quarter
Jul 22
Full

Hourly Weather History & Observations

Time (EDT) Temp. Dew Point Humidity Pressure Visibility Wind Dir Wind Speed Gust Speed Precip Events Conditions
12:15 AM 66.2 °F 64.4 °F 94% 29.77 in 1.8 mi SSW 5.8 mph - N/A   Overcast
12:35 AM 66.2 °F 64.4 °F 94% 29.77 in 0.8 mi South 5.8 mph - N/A   Overcast
12:55 AM 68.0 °F 66.2 °F 94% 29.76 in 0.5 mi South 5.8 mph - N/A   Overcast
1:15 AM 68.0 °F 66.2 °F 94% 29.76 in 0.8 mi South 5.8 mph - N/A   Overcast
1:35 AM 68.0 °F 66.2 °F 94% 29.74 in 1.2 mi South 4.6 mph - N/A   Overcast
1:55 AM 66.2 °F 66.2 °F 100% 29.72 in 0.5 mi South 5.8 mph - N/A   Overcast
2:35 AM 68.0 °F 66.2 °F 94% 29.71 in 0.8 mi SSE 5.8 mph - N/A   Overcast
2:55 AM 68.0 °F 66.2 °F 94% 29.70 in 1.2 mi SE 5.8 mph - N/A Thunderstorm Overcast
3:15 AM 68.0 °F 68.0 °F 100% 29.70 in 1.2 mi ESE 6.9 mph - 0.04 in Thunderstorm Thunderstorm
3:35 AM 69.8 °F 68.0 °F 94% 29.68 in 3.0 mi SSE 8.1 mph 21.9 mph 0.43 in Thunderstorm Thunderstorm
3:55 AM 69.8 °F 68.0 °F 94% 29.68 in 5.0 mi SE 6.9 mph - N/A Thunderstorm Overcast
4:15 AM 69.8 °F 68.0 °F 94% 29.68 in 6.0 mi SE 6.9 mph - N/A   Overcast
4:35 AM 69.8 °F 68.0 °F 94% 29.67 in 5.0 mi SE 9.2 mph - N/A   Overcast
4:55 AM 68.0 °F 68.0 °F 100% 29.66 in 5.0 mi SE 6.9 mph - N/A   Overcast
5:15 AM 69.8 °F 68.0 °F 94% 29.67 in 3.0 mi South 6.9 mph - N/A   Overcast
5:35 AM 69.8 °F 69.8 °F 100% 29.66 in 1.0 mi South 9.2 mph 17.3 mph N/A   Overcast
5:55 AM 69.8 °F 69.8 °F 100% 29.66 in 0.8 mi South 9.2 mph 16.1 mph N/A   Overcast
6:15 AM 69.8 °F 68.0 °F 94% 29.65 in 0.5 mi South 10.4 mph 17.3 mph N/A   Overcast
6:35 AM 69.8 °F 68.0 °F 94% 29.65 in 1.0 mi South 13.8 mph 17.3 mph 0.01 in   Overcast
6:55 AM 69.8 °F 68.0 °F 94% 29.64 in 0.8 mi South 11.5 mph 16.1 mph N/A   Overcast
7:15 AM 69.8 °F 69.8 °F 100% 29.64 in 1.2 mi South 10.4 mph 16.1 mph N/A   Overcast
7:35 AM 69.8 °F 69.8 °F 100% 29.64 in 1.2 mi South 12.7 mph 20.7 mph N/A   Overcast
7:55 AM 69.8 °F 69.8 °F 100% 29.64 in 0.8 mi South 12.7 mph 20.7 mph N/A   Overcast
8:15 AM 69.8 °F 69.8 °F 100% 29.63 in 1.0 mi South 13.8 mph 17.3 mph N/A   Overcast
8:55 AM 69.8 °F 68.0 °F 94% 29.63 in 3.0 mi South 15.0 mph 23.0 mph 0.09 in   Overcast
9:15 AM 68.0 °F 66.2 °F 94% 29.63 in 5.0 mi SSW 16.1 mph 23.0 mph 0.01 in Thunderstorm Overcast
9:35 AM 68.0 °F 68.0 °F 100% 29.62 in 4.0 mi SSW 16.1 mph 20.7 mph 0.03 in   Overcast
9:55 AM 68.0 °F 68.0 °F 100% 29.61 in 5.0 mi SSW 15.0 mph 21.9 mph 0.04 in   Overcast
10:15 AM 69.8 °F 66.2 °F 88% 29.61 in 6.0 mi SSW 13.8 mph 25.3 mph N/A   Overcast
10:35 AM 69.8 °F 68.0 °F 94% 29.61 in 6.0 mi SSW 16.1 mph 25.3 mph N/A   Overcast
10:55 AM 69.8 °F 66.2 °F 88% 29.60 in 7.0 mi South 18.4 mph 23.0 mph N/A   Overcast
11:15 AM 69.8 °F 68.0 °F 94% 29.60 in 6.0 mi South 17.3 mph 24.2 mph N/A   Overcast
11:35 AM 69.8 °F 68.0 °F 94% 29.60 in 8.0 mi South 15.0 mph 20.7 mph N/A   Overcast
11:55 AM 69.8 °F 68.0 °F 94% 29.59 in 6.0 mi SSW 16.1 mph 24.2 mph N/A   Overcast
12:15 PM 69.8 °F 68.0 °F 94% 29.59 in 2.5 mi SSW 16.1 mph 23.0 mph N/A   Overcast
12:35 PM 69.8 °F 69.8 °F 100% 29.59 in 2.5 mi SSW 20.7 mph 24.2 mph N/A   Overcast
12:55 PM 69.8 °F 69.8 °F 100% 29.59 in 2.5 mi South 17.3 mph 25.3 mph N/A   Overcast
1:15 PM 69.8 °F 68.0 °F 94% 29.59 in 2.0 mi SSW 13.8 mph 20.7 mph N/A   Overcast
1:35 PM 69.8 °F 68.0 °F 94% 29.58 in 2.5 mi SSW 15.0 mph 20.7 mph N/A   Overcast
1:55 PM 71.6 °F 68.0 °F 88% 29.58 in 3.0 mi SSW 13.8 mph 18.4 mph N/A   Overcast
2:15 PM 71.6 °F 69.8 °F 94% 29.58 in 5.0 mi South 16.1 mph 20.7 mph N/A   Overcast
2:35 PM 69.8 °F 66.2 °F 88% 29.59 in 5.0 mi South 17.3 mph 25.3 mph N/A   Overcast
2:55 PM 69.8 °F 66.2 °F 88% 29.58 in 3.0 mi South 16.1 mph 25.3 mph N/A   Overcast
3:15 PM 69.8 °F 66.2 °F 88% 29.58 in 3.0 mi South 15.0 mph 23.0 mph N/A   Overcast
3:35 PM 69.8 °F 66.2 °F 88% 29.58 in 2.0 mi South 15.0 mph 21.9 mph N/A   Overcast
3:55 PM 68.0 °F 66.2 °F 94% 29.58 in 1.0 mi South 15.0 mph 23.0 mph N/A   Overcast
4:15 PM 68.0 °F 66.2 °F 94% 29.57 in 1.0 mi South 13.8 mph 21.9 mph N/A   Overcast
4:35 PM 69.8 °F 66.2 °F 88% 29.57 in 1.2 mi SSW 16.1 mph 23.0 mph N/A   Overcast
4:55 PM 69.8 °F 66.2 °F 88% 29.57 in 1.2 mi South 12.7 mph 21.9 mph N/A   Overcast
5:15 PM 68.0 °F 66.2 °F 94% 29.58 in 1.0 mi South 12.7 mph 20.7 mph N/A   Overcast
5:35 PM 68.0 °F 66.2 °F 94% 29.57 in 0.8 mi South 13.8 mph 21.9 mph N/A   Overcast
5:55 PM 68.0 °F 66.2 °F 94% 29.57 in 1.0 mi SSW 15.0 mph - N/A   Overcast
6:15 PM 69.8 °F 68.0 °F 94% 29.57 in 1.0 mi SSW 16.1 mph 20.7 mph N/A   Overcast
6:35 PM 69.8 °F 68.0 °F 94% 29.57 in 1.8 mi South 13.8 mph - N/A   Overcast
6:55 PM 69.8 °F 68.0 °F 94% 29.57 in 2.0 mi South 11.5 mph 23.0 mph N/A   Overcast
7:15 PM 68.0 °F 66.2 °F 94% 29.57 in 0.8 mi SSW 15.0 mph 20.7 mph N/A   Overcast
7:35 PM 68.0 °F 66.2 °F 94% 29.58 in 0.5 mi South 13.8 mph 23.0 mph N/A   Overcast
7:55 PM 66.2 °F 64.4 °F 94% 29.59 in 0.5 mi South 13.8 mph 18.4 mph N/A   Overcast
8:15 PM 68.0 °F 66.2 °F 94% 29.59 in 0.8 mi SSW 16.1 mph 20.7 mph N/A   Overcast
8:35 PM 68.0 °F 66.2 °F 94% 29.59 in 0.8 mi South 10.4 mph - N/A   Overcast
8:55 PM 68.0 °F 66.2 °F 94% 29.60 in 1.0 mi SSW 11.5 mph 16.1 mph N/A   Overcast
9:15 PM 66.2 °F 66.2 °F 100% 29.59 in 1.0 mi South 12.7 mph 17.3 mph N/A   Overcast
9:35 PM 68.0 °F 66.2 °F 94% 29.61 in 1.2 mi SSW 12.7 mph 20.7 mph N/A   Overcast
9:55 PM 66.2 °F 66.2 °F 100% 29.61 in 1.2 mi South 13.8 mph 20.7 mph N/A   Overcast
10:15 PM 68.0 °F 66.2 °F 94% 29.60 in 1.8 mi South 12.7 mph 19.6 mph N/A   Overcast
10:35 PM 68.0 °F 66.2 °F 94% 29.61 in 1.5 mi South 13.8 mph 20.7 mph N/A   Overcast
10:55 PM 68.0 °F 66.2 °F 94% 29.61 in 1.2 mi SSW 12.7 mph 18.4 mph N/A   Overcast
11:15 PM 69.8 °F 68.0 °F 94% 29.61 in 1.0 mi SSW 12.7 mph - N/A   Overcast
11:35 PM 68.0 °F 66.2 °F 94% 29.60 in 1.0 mi SSW 10.4 mph - N/A   Overcast
11:55 PM 68.0 °F 68.0 °F 100% 29.60 in 1.2 mi South 11.5 mph 17.3 mph N/A   Overcast